Location: Bagnolo San Vito
(45.0833°N, 10.8833°E)
Time: 23:52:36
(UTC+00:00)

ERS-2 - Pass Details

Date: 03 March 2021
Orbit: 492 x 496 km, 98.6° (Epoch: 17 April)

Event Time Altitude Azimuth Distance (km) Brightness Sun altitude
Rises 18:22:44 0° 11° (N) 2,594 5.7 -14.2°
Reaches altitude 10° 18:24:50 10° 8° (N) 1,706 4.8 -14.6°
Maximum altitude 18:28:28 64° 287° (WNW) 555 2.6 -15.2°
Drops below altitude 10° 18:32:04 10° 205° (SSW) 1,693 5.0 -15.8°
Sets 18:34:08 0° 203° (SSW) 2,571 5.9 -16.2°
